• In Deutschland
  • Länderverzeichnis
  • Für 7 Tage
  • Wassertemperatur
  • Satellitenkarten
  • Wetterkarte
  • Widgets
  • user-avatar
    Anmelden

    Stündliche Wetter Rangpur

    Heute, 22 Februar, Donnerstag

    Zeit Temperatur Niederschläge Wind Luftdruck Luftfeuchtigkeit
    00:00 +24°C° 0 mm 1 m/S 755 mmHg 34%
    01:00 +24°C° 0 mm 1 m/S 754 mmHg 36%
    02:00 +23°C° 0 mm 1 m/S 754 mmHg 37%
    03:00 +23°C° 0 mm 1 m/S 754 mmHg 39%
    04:00 +22°C° 0 mm 1 m/S 754 mmHg 40%
    05:00 +22°C° 0 mm 1 m/S 754 mmHg 42%
    06:00 +21°C° 0 mm 1 m/S 754 mmHg 44%
    07:00 +23°C° 0 mm 2 m/S 755 mmHg 41%
    08:00 +24°C° 0 mm 2 m/S 755 mmHg 39%
    09:00 +25°C° 0 mm 2 m/S 755 mmHg 37%
    10:00 +27°C° 0 mm 2 m/S 755 mmHg 33%
    11:00 +29°C° 0 mm 2 m/S 755 mmHg 29%
    12:00 +31°C° 0 mm 2 m/S 755 mmHg 26%
    13:00 +31°C° 0 mm 2 m/S 754 mmHg 24%
    14:00 +32°C° 0 mm 2 m/S 754 mmHg 23%
    15:00 +33°C° 0 mm 3 m/S 753 mmHg 22%
    16:00 +31°C° 0 mm 2 m/S 753 mmHg 23%
    17:00 +30°C° 0 mm 2 m/S 753 mmHg 25%
    18:00 +30°C° 0 mm 2 m/S 753 mmHg 27%
    19:00 +29°C° 0 mm 2 m/S 753 mmHg 28%
    20:00 +28°C° 0 mm 2 m/S 754 mmHg 29%
    21:00 +27°C° 0 mm 2 m/S 754 mmHg 30%
    22:00 +26°C° 0 mm 2 m/S 754 mmHg 32%
    23:00 +25°C° 0 mm 2 m/S 754 mmHg 33%

    Morgen, 23 Februar, Freitag

    Zeit Temperatur Niederschläge Wind Luftdruck Luftfeuchtigkeit
    00:00 +25°C° 0 mm 2 m/S 754 mmHg 35%
    01:00 +24°C° 0 mm 2 m/S 754 mmHg 37%
    02:00 +23°C° 0 mm 2 m/S 754 mmHg 39%
    03:00 +23°C° 0 mm 2 m/S 754 mmHg 41%
    04:00 +21°C° 0 mm 2 m/S 754 mmHg 43%
    05:00 +21°C° 0 mm 2 m/S 754 mmHg 45%
    06:00 +20°C° 0 mm 2 m/S 754 mmHg 48%
    07:00 +22°C° 0 mm 3 m/S 755 mmHg 45%
    08:00 +24°C° 0 mm 3 m/S 755 mmHg 42%
    09:00 +26°C° 0 mm 3 m/S 756 mmHg 39%
    10:00 +27°C° 0 mm 3 m/S 756 mmHg 36%
    11:00 +29°C° 0 mm 2 m/S 756 mmHg 32%
    12:00 +31°C° 0 mm 2 m/S 756 mmHg 28%
    13:00 +31°C° 0 mm 2 m/S 755 mmHg 26%
    14:00 +33°C° 0 mm 3 m/S 754 mmHg 24%
    15:00 +34°C° 0 mm 3 m/S 753 mmHg 22%
    16:00 +33°C° 0 mm 3 m/S 753 mmHg 24%
    17:00 +31°C° 0 mm 2 m/S 753 mmHg 25%
    18:00 +30°C° 0 mm 2 m/S 753 mmHg 27%
    19:00 +29°C° 0 mm 2 m/S 754 mmHg 29%
    20:00 +28°C° 0 mm 2 m/S 755 mmHg 31%
    21:00 +27°C° 0 mm 2 m/S 755 mmHg 33%
    22:00 +26°C° 0 mm 3 m/S 755 mmHg 36%
    23:00 +25°C° 0 mm 3 m/S 755 mmHg 39%

    übermorgen, 24 Februar, Samstag

    Zeit Temperatur Niederschläge Wind Luftdruck Luftfeuchtigkeit
    00:00 +24°C° 0 mm 3 m/S 756 mmHg 41%
    01:00 +24°C° 0 mm 3 m/S 755 mmHg 44%
    02:00 +22°C° 0 mm 3 m/S 755 mmHg 46%
    03:00 +22°C° 0 mm 3 m/S 755 mmHg 48%
    04:00 +21°C° 0 mm 3 m/S 756 mmHg 50%
    05:00 +21°C° 0 mm 3 m/S 756 mmHg 52%
    06:00 +20°C° 0 mm 3 m/S 756 mmHg 53%
    07:00 +22°C° 0 mm 3 m/S 757 mmHg 50%
    08:00 +23°C° 0 mm 4 m/S 758 mmHg 46%
    09:00 +26°C° 0 mm 4 m/S 759 mmHg 42%
    10:00 +28°C° 0 mm 4 m/S 758 mmHg 38%
    11:00 +29°C° 0 mm 4 m/S 758 mmHg 34%
    12:00 +31°C° 0 mm 3 m/S 757 mmHg 30%
    13:00 +32°C° 0 mm 2 m/S 757 mmHg 28%
    14:00 +32°C° 0 mm 2 m/S 756 mmHg 26%
    15:00 +33°C° 0 mm 1 m/S 755 mmHg 24%
    16:00 +32°C° 0 mm 1 m/S 755 mmHg 25%
    17:00 +31°C° 0 mm 1 m/S 755 mmHg 26%
    18:00 +30°C° 0 mm 1 m/S 755 mmHg 28%
    19:00 +29°C° 0 mm 2 m/S 756 mmHg 30%
    20:00 +28°C° 0 mm 2 m/S 757 mmHg 32%
    21:00 +27°C° 0 mm 3 m/S 757 mmHg 34%
    22:00 +27°C° 0 mm 3 m/S 757 mmHg 37%
    23:00 +26°C° 0 mm 3 m/S 757 mmHg 39%

    25 Februar, Sonntag

    Zeit Temperatur Niederschläge Wind Luftdruck Luftfeuchtigkeit
    00:00 +25°C° 0 mm 3 m/S 757 mmHg 42%
    01:00 +25°C° 0 mm 3 m/S 757 mmHg 44%
    02:00 +24°C° 0 mm 3 m/S 757 mmHg 46%
    03:00 +22°C° 0 mm 3 m/S 757 mmHg 48%
    04:00 +22°C° 0 mm 3 m/S 757 mmHg 49%
    05:00 +22°C° 0 mm 3 m/S 757 mmHg 51%
    06:00 +21°C° 0 mm 3 m/S 757 mmHg 52%
    07:00 +24°C° 0 mm 3 m/S 757 mmHg 48%
    08:00 +25°C° 0 mm 3 m/S 758 mmHg 44%
    09:00 +27°C° 0 mm 4 m/S 759 mmHg 40%
    10:00 +29°C° 0 mm 3 m/S 758 mmHg 36%
    11:00 +30°C° 0 mm 2 m/S 758 mmHg 32%
    12:00 +32°C° 0 mm 2 m/S 758 mmHg 28%
    13:00 +34°C° 0 mm 2 m/S 757 mmHg 26%
    14:00 +34°C° 0 mm 2 m/S 756 mmHg 25%
    15:00 +34°C° 0 mm 1 m/S 755 mmHg 23%
    16:00 +33°C° 0 mm 1 m/S 755 mmHg 25%
    17:00 +32°C° 0 mm 1 m/S 755 mmHg 26%
    18:00 +31°C° 0 mm 1 m/S 755 mmHg 27%
    19:00 +30°C° 0 mm 1 m/S 755 mmHg 29%
    20:00 +29°C° 0 mm 1 m/S 756 mmHg 30%
    21:00 +28°C° 0 mm 1 m/S 756 mmHg 32%
    22:00 +28°C° 0 mm 2 m/S 756 mmHg 34%
    23:00 +27°C° 0 mm 2 m/S 756 mmHg 36%

    26 Februar, Montag

    Zeit Temperatur Niederschläge Wind Luftdruck Luftfeuchtigkeit
    00:00 +26°C° 0 mm 2 m/S 756 mmHg 38%
    01:00 +25°C° 0 mm 2 m/S 755 mmHg 40%
    02:00 +25°C° 0 mm 2 m/S 755 mmHg 42%
    03:00 +24°C° 0 mm 3 m/S 754 mmHg 44%
    04:00 +24°C° 0 mm 3 m/S 755 mmHg 45%
    05:00 +23°C° 0 mm 2 m/S 755 mmHg 47%
    06:00 +23°C° 0 mm 2 m/S 755 mmHg 48%
    07:00 +24°C° 0 mm 3 m/S 755 mmHg 45%
    08:00 +26°C° 0 mm 3 m/S 756 mmHg 42%
    09:00 +27°C° 0 mm 4 m/S 756 mmHg 38%
    10:00 +29°C° 0 mm 3 m/S 756 mmHg 35%
    11:00 +31°C° 0 mm 2 m/S 755 mmHg 31%
    12:00 +32°C° 0 mm 2 m/S 755 mmHg 27%
    13:00 +34°C° 0 mm 2 m/S 754 mmHg 26%
    14:00 +35°C° 0 mm 2 m/S 753 mmHg 24%
    15:00 +35°C° 0 mm 2 m/S 752 mmHg 23%
    16:00 +34°C° 0 mm 2 m/S 752 mmHg 25%
    17:00 +32°C° 0 mm 2 m/S 752 mmHg 26%
    18:00 +31°C° 0 mm 1 m/S 753 mmHg 28%
    19:00 +30°C° 0 mm 2 m/S 753 mmHg 30%
    20:00 +29°C° 0 mm 2 m/S 754 mmHg 31%
    21:00 +28°C° 0 mm 2 m/S 754 mmHg 33%
    22:00 +28°C° 0 mm 2 m/S 754 mmHg 35%
    23:00 +27°C° 0 mm 2 m/S 754 mmHg 37%

    27 Februar, Dienstag

    Zeit Temperatur Niederschläge Wind Luftdruck Luftfeuchtigkeit
    00:00 +26°C° 0 mm 3 m/S 754 mmHg 40%
    01:00 +25°C° 0 mm 3 m/S 754 mmHg 41%
    02:00 +25°C° 0 mm 3 m/S 754 mmHg 43%
    03:00 +24°C° 0 mm 3 m/S 754 mmHg 44%
    04:00 +24°C° 0 mm 3 m/S 754 mmHg 45%
    05:00 +22°C° 0 mm 3 m/S 754 mmHg 47%
    06:00 +22°C° 0 mm 3 m/S 754 mmHg 48%
    07:00 +25°C° 0 mm 3 m/S 755 mmHg 45%
    08:00 +26°C° 0 mm 3 m/S 755 mmHg 42%
    09:00 +27°C° 0 mm 4 m/S 756 mmHg 39%
    10:00 +29°C° 0 mm 3 m/S 755 mmHg 35%
    11:00 +31°C° 0 mm 3 m/S 755 mmHg 31%
    12:00 +34°C° 0 mm 2 m/S 755 mmHg 27%
    13:00 +34°C° 0 mm 2 m/S 754 mmHg 26%
    14:00 +34°C° 0 mm 1 m/S 753 mmHg 24%
    15:00 +35°C° 0 mm 1 m/S 752 mmHg 23%
    16:00 +34°C° 0 mm 1 m/S 752 mmHg 24%
    17:00 +33°C° 0 mm 1 m/S 752 mmHg 26%
    18:00 +32°C° 0 mm 1 m/S 752 mmHg 27%
    19:00 +31°C° 0 mm 1 m/S 753 mmHg 29%
    20:00 +30°C° 0 mm 1 m/S 753 mmHg 30%
    21:00 +29°C° 0 mm 2 m/S 754 mmHg 32%
    22:00 +28°C° 0 mm 2 m/S 754 mmHg 34%
    23:00 +28°C° 0 mm 2 m/S 754 mmHg 36%
    Mehr zeigen